レモン彗星

C/2018 B1 ( Lemmon )

English version
Home page
Updated on April 13, 2018

---------------------------------------------------------------------

・ プロフィール

発見日 2018年1月25日
発見光度 19.4等
発見者 A. D. Grauer (Mount Lemmon Survey)

・ 写真集

・ 軌道要素

Epoch 2018 Mar. 23.0 TT = JDT 2458200.5
T 2018 Mar. 30.56868 TT                                 MPCW
q   5.1169532            (2000.0)            P               Q
z  -0.0005922      Peri.   68.35414     +0.39405529     +0.89229658
 +/-0.0000135      Node   133.15847     +0.69130540     -0.44569989
e   1.0030302      Incl.  162.42300     +0.60565441     -0.07182222
From 82 observations 2017 Jan. 16-2018 Mar. 3, mean residual 0".5.

・ 光度変化

        m1 = 8.5 + 5 logΔ + 10.0 log r

---------------------------------------------------------------------

軌道要素はM.P.E.C. 2018-F152に掲載されたものです。
光度グラフはComet for Windowsで作成したものです。

---------------------------------------------------------------------

Copyright(C) Seiichi Yoshida (comet@aerith.net). All rights reserved.